AVA9544 SKCL-SKBO

Flight info

Callsign AVA9544
Flight time 0h 29m
Altitude 23000
Route ULQ1K ULQ W1 TOLIM TOLIM5E
Aircraft A320/M-SDE3FGHIRWY/LB1

Departure

Time 2026-04-20 05:28
Airport Alfonso Bonilla Aragon International Airport (SKCL)

Arrival

Time 2026-04-20 05:58
Airport El Dorado International Airport (SKBO)
Time Latitude Longitude Altitude Speed Heading
2026-04-20 05:04 3.53798 -76.38726 3162 ft 0 kts 327°
2026-04-20 05:19 3.53796 -76.38724 3162 ft 2 kts 326°
2026-04-20 05:19 3.53779 -76.38708 3162 ft 4 kts 287°
2026-04-20 05:20 3.53780 -76.38685 3162 ft 4 kts 235°
2026-04-20 05:20 3.53798 -76.38666 3166 ft 4 kts 216°
2026-04-20 05:20 3.53816 -76.38653 3162 ft 4 kts 222°
2026-04-20 05:20 3.53832 -76.38633 3162 ft 4 kts 249°
2026-04-20 05:21 3.53837 -76.38611 3163 ft 2 kts 266°
2026-04-20 05:21 3.53842 -76.38587 3164 ft 4 kts 242°
2026-04-20 05:21 3.53859 -76.38567 3166 ft 4 kts 214°
2026-04-20 05:21 3.53873 -76.38558 3162 ft 0 kts 221°
2026-04-20 05:25 3.53871 -76.38559 3162 ft 3 kts 221°
2026-04-20 05:25 3.53798 -76.38577 3162 ft 17 kts 162°
2026-04-20 05:25 3.53690 -76.38516 3162 ft 18 kts 138°
2026-04-20 05:25 3.53599 -76.38460 3162 ft 15 kts 168°
2026-04-20 05:26 3.53494 -76.38471 3162 ft 16 kts 189°
2026-04-20 05:26 3.53378 -76.38491 3162 ft 18 kts 189°
2026-04-20 05:26 3.53253 -76.38515 3162 ft 19 kts 193°
2026-04-20 05:26 3.53118 -76.38541 3162 ft 20 kts 189°
2026-04-20 05:27 3.53012 -76.38545 3162 ft 10 kts 138°
2026-04-20 05:27 3.52990 -76.38489 3162 ft 7 kts 101°
2026-04-20 05:27 3.52991 -76.38447 3161 ft 7 kts 79°
2026-04-20 05:27 3.53029 -76.38390 3160 ft 16 kts 14°
2026-04-20 05:28 3.53322 -76.38337 3161 ft 79 kts
2026-04-20 05:28 3.54073 -76.38209 3168 ft 140 kts
2026-04-20 05:28 3.55191 -76.37996 3308 ft 176 kts 12°
2026-04-20 05:28 3.56447 -76.37767 3820 ft 190 kts 11°
2026-04-20 05:29 3.57763 -76.37548 4568 ft 192 kts 11°
2026-04-20 05:29 3.59074 -76.37307 5307 ft 190 kts 12°
2026-04-20 05:29 3.60337 -76.37045 5992 ft 184 kts 14°
2026-04-20 05:29 3.61565 -76.36761 6627 ft 179 kts 15°
2026-04-20 05:30 3.62757 -76.36455 7214 ft 174 kts 17°
2026-04-20 05:30 3.63907 -76.36129 7750 ft 170 kts 18°
2026-04-20 05:30 3.65070 -76.35815 8048 ft 183 kts 15°
2026-04-20 05:30 3.66382 -76.35486 8192 ft 205 kts 15°
2026-04-20 05:31 3.67836 -76.35107 8380 ft 227 kts 16°
2026-04-20 05:31 3.69440 -76.34667 8604 ft 251 kts 17°
2026-04-20 05:31 3.71198 -76.34164 8879 ft 275 kts 17°
2026-04-20 05:31 3.73099 -76.33602 9277 ft 293 kts 18°
2026-04-20 05:32 3.75077 -76.33003 9961 ft 299 kts 18°
2026-04-20 05:32 3.77073 -76.32389 10460 ft 314 kts 18°
2026-04-20 05:32 3.79235 -76.31716 10653 ft 337 kts 18°
2026-04-20 05:32 3.81542 -76.30994 10821 ft 359 kts 18°
2026-04-20 05:33 3.83969 -76.30231 11290 ft 369 kts 18°
2026-04-20 05:33 3.86432 -76.29459 11916 ft 373 kts 18°
2026-04-20 05:33 3.88929 -76.28678 12554 ft 377 kts 18°
2026-04-20 05:33 3.91446 -76.27894 13172 ft 381 kts 18°
2026-04-20 05:34 3.93989 -76.27102 13780 ft 384 kts 18°
2026-04-20 05:34 3.96555 -76.26302 14381 ft 388 kts 18°
2026-04-20 05:34 4.01709 -76.24693 15525 ft 394 kts 18°
2026-04-20 05:35 4.04303 -76.23770 16065 ft 397 kts 25°
2026-04-20 05:35 4.06700 -76.22382 16590 ft 399 kts 37°
2026-04-20 05:35 4.08788 -76.20549 17122 ft 401 kts 48°
2026-04-20 05:35 4.10502 -76.18331 17638 ft 403 kts 59°
2026-04-20 05:36 4.11752 -76.15819 18151 ft 405 kts 69°
2026-04-20 05:36 4.12768 -76.13168 18659 ft 408 kts 70°
2026-04-20 05:36 4.13774 -76.10542 19153 ft 411 kts 70°
2026-04-20 05:36 4.14808 -76.07859 19645 ft 415 kts 70°
2026-04-20 05:37 4.15854 -76.05151 20116 ft 418 kts 69°
2026-04-20 05:37 4.16908 -76.02435 20584 ft 420 kts 69°
2026-04-20 05:37 4.17971 -75.99696 21028 ft 423 kts 69°
2026-04-20 05:37 4.19040 -75.96935 21458 ft 426 kts 69°
2026-04-20 05:38 4.20113 -75.94161 21873 ft 429 kts 69°
2026-04-20 05:38 4.21191 -75.91372 22288 ft 431 kts 70°
2026-04-20 05:38 4.22266 -75.88598 22673 ft 433 kts 69°
2026-04-20 05:38 4.23368 -75.85786 23040 ft 436 kts 69°
2026-04-20 05:39 4.24482 -75.82959 23257 ft 438 kts 69°
2026-04-20 05:39 4.25614 -75.80090 23306 ft 446 kts 69°
2026-04-20 05:39 4.26766 -75.77175 23302 ft 455 kts 69°
2026-04-20 05:39 4.27934 -75.74210 23303 ft 458 kts 69°
2026-04-20 05:40 4.29101 -75.71240 23303 ft 459 kts 69°
2026-04-20 05:40 4.30271 -75.68266 23302 ft 459 kts 69°
2026-04-20 05:40 4.31433 -75.65324 23302 ft 459 kts 69°
2026-04-20 05:40 4.32604 -75.62358 23304 ft 459 kts 69°
2026-04-20 05:41 4.33776 -75.59382 23302 ft 459 kts 69°
2026-04-20 05:41 4.34946 -75.56401 23303 ft 459 kts 69°
2026-04-20 05:41 4.36110 -75.53432 23302 ft 459 kts 69°
2026-04-20 05:41 4.37287 -75.50457 23301 ft 459 kts 68°
2026-04-20 05:42 4.38735 -75.47601 23300 ft 459 kts 62°
2026-04-20 05:42 4.40247 -75.44786 23299 ft 459 kts 63°
2026-04-20 05:42 4.41689 -75.41931 23299 ft 459 kts 64°
2026-04-20 05:42 4.43074 -75.39082 23299 ft 460 kts 65°
2026-04-20 05:43 4.44454 -75.36199 23299 ft 459 kts 65°
2026-04-20 05:43 4.45838 -75.33318 23297 ft 459 kts 65°
2026-04-20 05:43 4.47239 -75.30434 23297 ft 459 kts 64°
2026-04-20 05:43 4.48649 -75.27568 23295 ft 459 kts 64°
2026-04-20 05:44 4.50073 -75.24706 23295 ft 459 kts 64°
2026-04-20 05:44 4.51503 -75.21848 23293 ft 459 kts 64°
2026-04-20 05:44 4.52929 -75.18995 23291 ft 459 kts 64°
2026-04-20 05:44 4.54339 -75.16170 23290 ft 459 kts 64°
2026-04-20 05:45 4.55761 -75.13315 23288 ft 458 kts 64°
2026-04-20 05:45 4.57179 -75.10457 23288 ft 458 kts 64°
2026-04-20 05:45 4.58596 -75.07591 23288 ft 458 kts 64°
2026-04-20 05:45 4.60013 -75.04725 23131 ft 458 kts 64°
2026-04-20 05:46 4.61423 -75.01872 22877 ft 457 kts 64°
2026-04-20 05:46 4.62833 -74.99021 22630 ft 455 kts 64°
2026-04-20 05:46 4.64236 -74.96192 22374 ft 453 kts 64°
2026-04-20 05:46 4.65631 -74.93384 21673 ft 448 kts 64°
2026-04-20 05:47 4.66994 -74.90642 20958 ft 444 kts 64°
2026-04-20 05:47 4.68363 -74.87891 20258 ft 440 kts 64°
2026-04-20 05:47 4.69719 -74.85155 19573 ft 435 kts 64°
2026-04-20 05:47 4.71055 -74.82455 18927 ft 430 kts 64°
2026-04-20 05:48 4.72385 -74.79764 17934 ft 434 kts 64°
2026-04-20 05:48 4.73723 -74.77054 17267 ft 430 kts 64°
2026-04-20 05:48 4.75036 -74.74402 16708 ft 423 kts 64°
2026-04-20 05:48 4.76339 -74.71771 16134 ft 418 kts 64°
2026-04-20 05:49 4.77623 -74.69180 15582 ft 412 kts 64°
2026-04-20 05:49 4.78889 -74.66624 15013 ft 407 kts 64°
2026-04-20 05:49 4.80122 -74.64133 14449 ft 403 kts 64°
2026-04-20 05:49 4.81350 -74.61650 14195 ft 391 kts 64°
2026-04-20 05:50 4.82532 -74.59258 14059 ft 375 kts 64°
2026-04-20 05:50 4.83670 -74.56957 13942 ft 361 kts 64°
2026-04-20 05:50 4.84765 -74.54749 13803 ft 348 kts 64°
2026-04-20 05:50 4.85825 -74.52613 13685 ft 336 kts 64°
2026-04-20 05:51 4.86847 -74.50552 13557 ft 324 kts 64°
2026-04-20 05:51 4.87835 -74.48556 13414 ft 315 kts 65°
2026-04-20 05:51 4.88795 -74.46613 13228 ft 307 kts 65°
2026-04-20 05:51 4.89708 -74.44721 13086 ft 297 kts 70°
2026-04-20 05:52 4.90084 -74.42767 12960 ft 285 kts 93°
2026-04-20 05:52 4.89682 -74.40874 12738 ft 277 kts 115°
2026-04-20 05:52 4.88580 -74.39298 12316 ft 278 kts 138°
2026-04-20 05:52 4.87105 -74.38048 11957 ft 277 kts 138°
2026-04-20 05:53 4.85866 -74.36612 11900 ft 266 kts 126°
2026-04-20 05:53 4.84821 -74.35140 11906 ft 254 kts 126°
2026-04-20 05:53 4.83780 -74.33731 11907 ft 251 kts 127°
2026-04-20 05:53 4.82724 -74.32338 11903 ft 246 kts 127°
2026-04-20 05:54 4.81709 -74.30998 11743 ft 239 kts 127°
2026-04-20 05:54 4.80720 -74.29692 11458 ft 237 kts 127°
2026-04-20 05:54 4.79728 -74.28381 11155 ft 236 kts 127°
2026-04-20 05:54 4.78736 -74.27072 10833 ft 233 kts 127°
2026-04-20 05:55 4.77775 -74.25801 10550 ft 223 kts 127°
2026-04-20 05:55 4.76867 -74.24602 10255 ft 210 kts 127°
2026-04-20 05:55 4.76019 -74.23481 9974 ft 194 kts 128°
2026-04-20 05:55 4.75244 -74.22458 9738 ft 175 kts 127°
2026-04-20 05:56 4.74536 -74.21523 9504 ft 164 kts 127°
2026-04-20 05:56 4.73869 -74.20642 9298 ft 158 kts 128°
2026-04-20 05:56 4.73209 -74.19770 9088 ft 156 kts 128°
2026-04-20 05:56 4.72553 -74.18904 8881 ft 155 kts 127°
2026-04-20 05:57 4.71900 -74.18042 8679 ft 155 kts 127°
2026-04-20 05:57 4.71248 -74.17182 8472 ft 155 kts 127°
2026-04-20 05:57 4.70597 -74.16345 8366 ft 142 kts 126°
2026-04-20 05:57 4.70116 -74.15688 8364 ft 92 kts 127°
2026-04-20 05:58 4.69841 -74.15311 8366 ft 42 kts 122°
2026-04-20 05:58 4.69733 -74.15110 8365 ft 24 kts 98°
2026-04-20 05:58 4.69706 -74.14978 8364 ft 14 kts 97°
2026-04-20 05:58 4.69704 -74.14879 8365 ft 14 kts 75°
2026-04-20 05:59 4.69757 -74.14808 8365 ft 10 kts 40°
2026-04-20 05:59 4.69807 -74.14768 8366 ft 6 kts 38°
2026-04-20 05:59 4.69834 -74.14744 8366 ft 4 kts 51°
2026-04-20 05:59 4.69843 -74.14727 8366 ft 2 kts 70°
2026-04-20 06:00 4.69844 -74.14723 8366 ft 0 kts 75°
2026-04-20 06:00 4.69841 -74.14707 8366 ft 2 kts 109°
2026-04-20 06:00 4.69838 -74.14700 8366 ft 1 kts 117°
2026-04-20 06:00 4.69833 -74.14691 8366 ft 6 kts 119°
2026-04-20 06:01 4.69795 -74.14637 8366 ft 6 kts 127°
2026-04-20 06:01 4.69777 -74.14622 8366 ft 1 kts 173°
2026-04-20 06:01 4.69768 -74.14625 8366 ft 1 kts 200°
2026-04-20 06:01 4.69759 -74.14629 8366 ft 2 kts 205°
2026-04-20 06:02 4.69748 -74.14637 8366 ft 3 kts 215°
2026-04-20 06:02 4.69744 -74.14640 8366 ft 1 kts 214°
2026-04-20 06:02 4.69737 -74.14645 8366 ft 1 kts 215°
2026-04-20 06:02 4.69735 -74.14646 8366 ft 0 kts 215°